CW9119 Weather Reports


Display with metric or nautical units.
time (UTC)temp
F
wind
direction
speed
MPH
gust
MPH
rain 1hr
in
rain 24hr
in
rain mn
in
humidity
%
barometer
mb
20260502220105 46 172 0.0 0.0 0.00 0.00 0.00 64 1017.9
20260502215110 46 172 0.0 0.0 0.00 0.00 0.00 63 1017.9
20260502211109 49 172 0.0 0.0 0.00 0.00 0.00 59 1018.2
20260502210110 49 172 0.0 0.0 0.00 0.00 0.00 58 1018.3
20260502205109 50 172 0.0 0.0 0.00 0.00 0.00 57 1018.3
20260502203109 51 172 0.0 0.0 0.00 0.00 0.00 55 1018.4
20260502200109 53 172 0.0 0.0 0.00 0.00 0.00 51 1018.7
20260502195109 54 172 0.0 0.0 0.00 0.00 0.00 49 1018.7
20260502193109 56 172 0.0 0.0 0.00 0.00 0.00 44 1018.7
20260502191109 58 172 0.0 0.0 0.00 0.00 0.00 43 1018.7
20260502185108 60 172 0.0 0.0 0.00 0.00 0.00 40 1018.7
20260502184108 61 172 0.0 0.0 0.00 0.00 0.00 39 1018.6
20260502182108 62 172 0.0 0.0 0.00 0.00 0.00 36 1018.3
20260502180108 64 172 0.0 0.0 0.00 0.00 0.00 33 1018.3
20260502163107 70 149 0.0 6.0 0.00 0.00 0.00 27 1018.3
20260502162107 70 148 0.0 6.0 0.00 0.00 0.00 29 1018.3
20260502161107 71 146 1.0 8.0 0.00 0.00 0.00 27 1018.5
20260502151107 70 172 1.0 5.0 0.00 0.00 0.00 28 1019.1
20260502140106 72 163 0.0 1.0 0.00 0.00 0.00 30 1020.2
20260502130106 72 152 1.0 8.0 0.00 0.00 0.00 31 1020.8
20260502123106 72 153 3.0 10.0 0.00 0.00 0.00 32 1021.1
20260502120106 71 157 1.0 8.0 0.00 0.00 0.00 34 1021.6
20260502115105 71 80 1.0 6.0 0.00 0.00 0.00 36 1021.6
20260502112105 71 94 1.0 6.0 0.00 0.00 0.00 32 1022.1
20260502100110 69 130 2.0 8.0 0.00 0.00 0.00 36 1023.2
20260502091109 67 171 2.0 10.0 0.00 0.00 0.00 36 1023.4
20260502080109 66 174 3.0 8.0 0.00 0.00 0.00 39 1024.3
20260502071108 62 38 0.0 1.0 0.00 0.00 0.00 55 1024.5
20260502070108 61 38 0.0 1.0 0.00 0.00 0.00 56 1024.5
20260502065108 60 38 0.0 1.0 0.00 0.00 0.00 58 1024.5
20260502061108 54 38 0.0 0.0 0.00 0.00 0.00 68 1024.7
20260502053108 47 38 0.0 0.0 0.00 0.00 0.00 78 1024.2
20260502051108 43 38 0.0 1.0 0.00 0.00 0.00 84 1024.1
20260502045108 41 38 0.0 0.0 0.00 0.00 0.00 84 1023.9
20260502043107 39 38 0.0 0.0 0.00 0.00 0.00 84 1024.0
20260502042107 39 38 0.0 1.0 0.00 0.00 0.00 84 1023.9
20260502041107 39 38 0.0 0.0 0.00 0.00 0.00 83 1024.0
20260502040107 39 38 0.0 0.0 0.00 0.00 0.00 83 1024.1
20260502035107 39 38 0.0 1.0 0.00 0.00 0.00 83 1024.0
20260502032107 39 38 0.0 0.0 0.00 0.00 0.00 82 1024.1
20260502031107 40 38 0.0 0.0 0.00 0.00 0.00 82 1024.1
20260502030107 40 38 0.0 0.0 0.00 0.00 0.00 82 1024.2
20260502025107 40 38 0.0 5.0 0.00 0.00 0.00 82 1024.4
20260502022107 40 23 0.0 0.0 0.00 0.00 0.00 81 1024.4
20260502020107 40 24 0.0 0.0 0.00 0.00 0.00 80 1024.6
20260502013108 40 20 0.0 2.0 0.00 0.00 0.00 81 1024.7
20260502005108 41 17 0.0 0.0 0.00 0.00 0.00 78 1024.9
20260502004108 41 17 0.0 0.0 0.00 0.00 0.00 78 1024.8
20260501234107 43 16 0.0 0.0 0.00 0.00 0.00 76 1025.1
20260501233107 43 16 0.0 1.0 0.00 0.00 0.00 76 1025.1